Weather History for Crestview, FL

Change the Weather History Date:

Monday, November 4, 2013

  Actual Average Record
Temperature  
Mean Temperature 60 °F -  
Max Temperature 74 °F - - ()
Min Temperature 45 °F - - ()
Degree Days  
Heating Degree Days 6    
Growing Degree Days 10 (Base 50)    
Moisture  
Dew Point 46 °F    
Average Humidity 60    
Maximum Humidity 78    
Minimum Humidity 43    
Precipitation  
Precipitation 0.00 in - - ()
Sea Level Pressure  
Sea Level Pressure 30.25 in    
Wind  
Wind Speed 6 mph (ENE)    
Max Wind Speed 10 mph    
Max Gust Speed -    
Visibility 10 miles    
Events      
T = Trace of Precipitation, MM = Missing Value Source: NWS Daily Summary

Daily Weather History Graph

Daily Weather History Graph

Search for Another Location

Airport:

Trip Planner

Search our weather history database for the weather conditions in past years. The results will help you decide how hot, cold, wet, or windy it might be!

Date:

Astronomy

Nov. 04, 2013 Rise Set
Actual Time 6:03 AM CST 4:55 PM CST
Civil Twilight 5:38 AM CST 5:20 PM CST
Nautical Twilight 5:09 AM CST 5:49 PM CST
Astronomical Twilight 4:41 AM CST 6:17 PM CST
Moon 7:09 AM CST (11/4) 6:04 PM CST (11/4)
Length of Visible Light 11h 42m
Length of Day
10h 52m
New Moon, 2% of the Moon is Illuminated
Nov 4
New Moon
Nov 9
First Quarter
Nov 17
Full
Nov 25
Last Quarter
Dec 2
New

Hourly Weather History & Observations

Time (CST) Temp. Windchill Dew Point Humidity Pressure Visibility Wind Dir Wind Speed Gust Speed Precip Events Conditions
12:58 AM 45.9 °F 43.6 °F 39.2 °F 78% 30.23 in 10.0 mi ENE 4.6 mph - N/A   Clear
1:58 AM 46.6 °F - 38.8 °F 74% 30.22 in 10.0 mi ENE 4.6 mph - N/A   Clear
2:58 AM 47.5 °F - 39.2 °F 73% 30.22 in 10.0 mi East 5.8 mph - N/A   Clear
3:58 AM 49.8 °F - 39.7 °F 68% 30.22 in 10.0 mi East 6.9 mph - N/A   Clear
4:58 AM 49.5 °F - 39.9 °F 70% 30.23 in 8.0 mi East 4.6 mph - N/A   Clear
5:58 AM 48.4 °F - 40.1 °F 73% 30.24 in 10.0 mi ENE 4.6 mph - N/A   Clear
6:58 AM 49.5 °F - 39.9 °F 70% 30.26 in 10.0 mi NE 4.6 mph - N/A   Clear
7:58 AM 56.3 °F - 40.1 °F 55% 30.28 in 10.0 mi East 8.1 mph - N/A   Clear
8:55 AM 62.1 °F - 42.6 °F 49% 30.27 in 10.0 mi East 10.4 mph - N/A   Scattered Clouds
9:55 AM 66.7 °F - 46.2 °F 48% 30.29 in 10.0 mi East 8.1 mph - N/A   Scattered Clouds
10:55 AM 69.1 °F - 47.5 °F 46% 30.29 in 10.0 mi Variable 5.8 mph - N/A   Scattered Clouds
11:55 AM 71.6 °F - 48.9 °F 45% 30.26 in 10.0 mi NE 6.9 mph - N/A   Scattered Clouds
12:55 PM 73.6 °F - 50.0 °F 43% 30.25 in 10.0 mi Variable 5.8 mph - N/A   Partly Cloudy
1:55 PM 74.7 °F - 50.9 °F 43% 30.24 in 10.0 mi Variable 5.8 mph - N/A   Partly Cloudy
2:55 PM 73.8 °F - 50.7 °F 44% 30.21 in 10.0 mi NE 8.1 mph - N/A   Scattered Clouds
3:55 PM 73.8 °F - 50.7 °F 44% 30.23 in 10.0 mi East 5.8 mph - N/A   Partly Cloudy
4:59 PM 67.6 °F - 50.7 °F 55% 30.23 in 10.0 mi ENE 4.6 mph - N/A   Mostly Cloudy
5:55 PM 65.1 °F - 50.2 °F 58% 30.25 in 10.0 mi ENE 4.6 mph - N/A   Mostly Cloudy
6:55 PM 61.3 °F - 50.4 °F 67% 30.25 in 10.0 mi ENE 5.8 mph - N/A   Mostly Cloudy
7:55 PM 62.2 °F - 49.8 °F 64% 30.27 in 10.0 mi ENE 6.9 mph - N/A   Mostly Cloudy
8:55 PM 62.6 °F - 49.6 °F 63% 30.26 in 10.0 mi ENE 9.2 mph - N/A   Scattered Clouds
9:55 PM 61.5 °F - 49.6 °F 65% 30.27 in 10.0 mi ENE 8.1 mph - N/A   Scattered Clouds
10:55 PM 60.8 °F - 50.0 °F 68% 30.27 in 10.0 mi ENE 8.1 mph - N/A   Scattered Clouds
11:55 PM 59.7 °F - 48.2 °F 66% 30.24 in 10.0 mi ENE 9.2 mph - N/A   Scattered Clouds